Pottstown, PA

8:00 PM EST on December 06, 2019 (GMT -0500)
Pottstown Limerick

Weather History for KPTW - November, 2019

Change the Weather History Date:

Saturday, November 16, 2019

  Actual Average (KRDG) Record (KRDG)
Temperature  
Mean Temperature 32 °F -  
Max Temperature 39 °F 50 °F 76 °F (1993)
Min Temperature 25 °F 32 °F 4 °F (1908)
Degree Days  
Heating Degree Days 32    
Moisture  
Dew Point 11 °F    
Average Humidity 42    
Maximum Humidity 67    
Minimum Humidity 20    
Precipitation  
Precipitation 0.00 in - - ()
Sea Level Pressure  
Sea Level Pressure 30.40 in    
Wind  
Wind Speed 8 mph (NE)    
Max Wind Speed 18 mph    
Max Gust Speed 26 mph    
Visibility 10 miles    
Events Snow    
Averages and records for this station are not official NWS values.
T = Trace of Precipitation, MM = Missing Value Source: NWS Daily Summary

Daily Weather History Graph

Daily Weather History Graph

Search for Another Location

Airport or City:

Astronomy

Nov. 16, 2019 Rise Set
Actual Time 6:48 AM EST 4:44 PM EST
Civil Twilight 6:19 AM EST 5:13 PM EST
Nautical Twilight 5:46 AM EST 5:46 PM EST
Astronomical Twilight 5:14 AM EST 6:18 PM EST
Moon 8:14 PM EST (11/16) 10:40 AM EST (11/16)
Length of Visible Light 10h 54m
Length of Day
9h 55m
Waning Gibbous, 82% of the Moon is Illuminated
Nov 16
Waning Gibbous
Nov 19
Last Quarter
Nov 26
New
Dec 4
First Quarter
Dec 12
Full

Hourly Weather History & Observations

Time (EST) Temp. Windchill Dew Point Humidity Pressure Visibility Wind Dir Wind Speed Gust Speed Precip Events Conditions
12:54 AM 35.1 °F 32.2 °F 25.0 °F 67% 30.27 in 9.0 mi Variable 3.5 mph - N/A   Clear
1:54 AM 36.0 °F 29.0 °F 23.0 °F 59% 30.27 in 10.0 mi North 9.2 mph - N/A   Clear
2:54 AM 35.1 °F 28.6 °F 23.0 °F 61% 30.28 in 10.0 mi North 8.1 mph - N/A   Clear
3:54 AM 33.1 °F 28.7 °F 21.9 °F 64% 30.30 in 10.0 mi North 4.6 mph - N/A   Clear
4:54 AM 33.1 °F 28.7 °F 21.9 °F 64% 30.32 in 10.0 mi North 4.6 mph - N/A   Clear
5:54 AM 33.1 °F 24.9 °F 21.9 °F 64% 30.36 in 10.0 mi NNE 10.4 mph - N/A   Clear
6:54 AM 32.0 °F 24.8 °F 18.0 °F 56% 30.40 in 10.0 mi NNE 8.1 mph - N/A   Clear
7:54 AM 33.1 °F 24.4 °F 17.1 °F 52% 30.43 in 10.0 mi NNE 11.5 mph 20.7 mph N/A   Clear
8:54 AM 35.1 °F 26.4 °F 17.1 °F 48% 30.44 in 10.0 mi NE 12.7 mph 24.2 mph N/A   Clear
9:54 AM 36.0 °F 28.0 °F 7.0 °F 30% 30.44 in 10.0 mi NE 11.5 mph 19.6 mph N/A   Clear
10:54 AM 39.0 °F 29.6 °F 3.9 °F 23% 30.45 in 10.0 mi ENE 18.4 mph 26.5 mph 0.00 in   Clear
11:54 AM 37.9 °F 29.2 °F 1.9 °F 22% 30.44 in 10.0 mi NE 15.0 mph 23.0 mph 0.00 in   Clear
12:54 PM 39.9 °F 31.8 °F 3.0 °F 21% 30.42 in 10.0 mi NNE 15.0 mph 20.7 mph N/A   Clear
1:54 PM 39.0 °F 32.8 °F 1.0 °F 20% 30.41 in 10.0 mi East 9.2 mph 18.4 mph N/A   Clear
2:54 PM 39.0 °F 32.8 °F 1.9 °F 21% 30.41 in 10.0 mi ENE 9.2 mph 17.3 mph N/A   Clear
3:54 PM 37.9 °F 31.5 °F 3.0 °F 23% 30.42 in 9.0 mi ENE 9.2 mph - 0.00 in Snow Light Snow
4:54 PM 34.0 °F 29.8 °F 3.0 °F 27% 30.43 in 9.0 mi NE 4.6 mph - 0.00 in Snow Light Snow
5:54 PM 32.0 °F 28.7 °F 5.0 °F 32% 30.44 in 10.0 mi ENE 3.5 mph - 0.00 in   Clear
6:54 PM 28.0 °F - 8.1 °F 43% 30.46 in 10.0 mi Calm Calm - N/A   Clear
7:54 PM 26.1 °F 20.5 °F 7.0 °F 44% 30.45 in 10.0 mi NNE 4.6 mph - N/A   Clear
8:54 PM 28.0 °F 20.8 °F 5.0 °F 38% 30.43 in 10.0 mi NE 6.9 mph - N/A   Clear
9:54 PM 28.0 °F 20.8 °F 5.0 °F 38% 30.42 in 10.0 mi NE 6.9 mph - N/A   Clear
10:54 PM 26.1 °F 20.5 °F 6.1 °F 43% 30.43 in 10.0 mi NE 4.6 mph - N/A   Clear
11:54 PM 25.0 °F 17.1 °F 7.0 °F 46% 30.43 in 10.0 mi NE 6.9 mph - N/A   Clear